View from above orbital plane
|
View from above satellite
|
Ground track
|
The orbit data is extracted from the following two-line orbital elements,
1 23697U 95057B 21015.32627605 .00006890 00000-0 51539-3 0 9992
2 23697 26.8011 123.2600 5082210 281.2404 27.8863 5.53967079383672
Epoch (UTC): | 15 January 2021 07:49:50 |
Eccentricity: | 0.5082210 |
inclination: | 26.8011° |
perigee height: | 257 km |
apogee height: | 13971 km |
right ascension of ascending node: | 123.2600° |
argument of perigee: | 281.2404° |
revolutions per day: | 5.53967079 |
mean anomaly at epoch: | 27.8863° |
orbit number at epoch: | 38367 |
The dashed part of the orbit path shows where the satellite is in the earth's shadow,
|
|